Regional Weather Roundup
Issued by NWS Charleston, SC

Current Version | Previous Version | Graphics & Text | Print | Product List | Glossary On
Versions: 1 2 3 4 5 6 7 8 9 10 11 12 13 14 15 16 17 18 19 20 21 22 23 24 25 26 27 28 29 30 31 32 33 34 35 36 37 38 39 40 41 42 43 44 45 46 47 48 49 50
000
ASUS42 KCHS 011825
RWRCHS

REGIONAL WEATHER ROUNDUP
NATIONAL WEATHER SERVICE CHARLESTON SC
200 PM EDT WED OCT 01 2014

NOTE: "FAIR" INDICATES FEW OR NO CLOUDS BELOW 12,000 FEET WITH NO
SIGNIFICANT WEATHER AND/OR OBSTRUCTIONS TO VISIBILITY.

NOT ALL STATIONS ARE QUALITY CONTROLLED BY THE NATIONAL
WEATHER SERVICE. USE DATA WITH CAUTION...ESPECIALLY
DEWPOINT OBSERVATIONS.

SCZ027-030-031-034>040-042>050-011900-
...SOUTH CAROLINA...

CITY           SKY/WX    TMP DP  RH WIND       PRES   REMARKS
N CHARLESTON   MOSUNNY   85  64  49 NE8       29.98F
6HR MIN TEMP:  65; 6HR MAX TEMP:  85;

WATERFRONT PRK   N/A     77 N/A N/A SE9         N/A
FORT JOHNSON   NOT AVBL
MOUNT PLEASANT FAIR      81  70  69 CALM      29.97F
JOHNS ISLAND   CLEAR     81  75  83 E7        29.97F
PINOPOLIS        N/A     81  68  65 W2        29.93F
MONCKS CORNER  FAIR      82  70  65 N3        29.98F
SUMMERVILLE    FAIR      82  64  54 N6        29.99F
BEAUFORT MCAS  MOSUNNY   83  64  52 CALM      29.98F
6HR MIN TEMP:  66; 6HR MAX TEMP:  84;

BEAUFORT ARPT  FAIR      81  66  61 NE5       29.97F
HILTON HEAD IS MOSUNNY   79  66  65 N6        29.99F
GEORGETOWN     NOT AVBL
WALTERBORO     CLOUDY    82  55  39 NE6       29.98F
ORANGEBURG     PTSUNNY   83  61  47 E7        29.99F
6HR MIN TEMP:  61; 6HR MAX TEMP:  85;

BARNWELL       FAIR      84  63  48 CALM      29.99F
AIKEN          MOCLDY    86  63  45 SE6       30.01F
MANNING        FAIR      82  64  54 CALM      29.98F
KINGSTREE      NOT AVBL
COLUMBIA       MOSUNNY   86  58  38 CALM      29.97F
6HR MIN TEMP:  61; 6HR MAX TEMP:  87;

SUMTER         MOSUNNY   83  62  48 VRB2      29.97F
6HR MIN TEMP:  61; 6HR MAX TEMP:  83;

FLORENCE       SUNNY     82  64  54 N6        29.98F
6HR MIN TEMP:  59; 6HR MAX TEMP:  83;

MYRTLE BEACH   MOSUNNY   79  64  61 SE8       29.99F
N MYRTLE BEACH SUNNY     78  66  66 S7        29.98F
6HR MIN TEMP:  63; 6HR MAX TEMP:  80;


$$

GAZ063-065-086>088-099>101-113>116-118-119-134-136>141-150-011900-
...GEORGIA...

CITY           SKY/WX    TMP DP  RH WIND       PRES   REMARKS
SAVANNAH ARPT  MOSUNNY   87  62  43 NE7       29.98F
6HR MIN TEMP:  66; 6HR MAX TEMP:  87;

HUNTER AAF     SUNNY     83  63  49 NE3       29.96F
6HR MIN TEMP:  66; 6HR MAX TEMP:  84;

FORT STEWART   MOSUNNY   82  64  53 N3        29.96F
6HR MIN TEMP:  64; 6HR MAX TEMP:  84; 6HR PCP:  0.01;

STATESBORO     NOT AVBL
SYLVANIA       PTCLDY    86  65  48 E3        29.99F
CLAXTON        FAIR      84  63  48 CALM      29.98S
THOMSON        SUNNY     85  68  58 E3        30.03F
AUGUSTA-BUSH   MOSUNNY   85  63  47 VRB6      29.98F
6HR MIN TEMP:  57; 6HR MAX TEMP:  86;

AUGUSTA-DANIEL MOSUNNY   83  59  44 E5        30.00F
SWAINSBORO     FAIR      86  64  48 S3        29.99F
VIDALIA        MOSUNNY   86  64  48 CALM      29.99F
ALMA           CLOUDY    82  64  54 NE5       29.98F
6HR MIN TEMP:  68; 6HR MAX TEMP:  84;

WAYCROSS       CLOUDY    84  70  63 E5        29.97F
JESUP          MOCLDY    88  68  51 CALM      29.97F HAZE    HX  91
BRUNSWICK      CLOUDY    82  64  54 E9        29.98F
SAINT SIMONS   CLOUDY    78  69  73 NE9       29.98F
6HR MIN TEMP:  70; 6HR MAX TEMP:  81;


$$

SCZ027-028-034-036>038-045-046-048>050-GAZ119-141-011900-
...LAKE AND SUPPLEMENTAL COASTAL OBSERVATIONS...

STATION/POSITION TIME  TEMP    WIND        PRES    WAVE   SWELL
                       AIR SEA DIR/SP/G            HT/PER HT/PER/DIR
                 (UTC) (F)     (DEG/KT/KT) (MB)    (FT/S) (FT/S/D)
UPR LAKE MARION  NOT AVBL
WINYAH BAY       1800   75      80/  7     1015.0S
LAKE MURRAY      1700   79     190/  6/  6 1015.2S
ACE BASIN NERRS  1800   83      60/  2     1016.0S
FORT PULASKI     1800   77      80/  7/  9 1015.5F
SAPELO ISLAND    NOT AVBL

$$

ANZ835-935-AMZ111-154-330-350-352-354-374-450-454-472-011900-
...C-MAN AND BUOY OBSERVATIONS...

STATION/POSITION TIME  TEMP    WIND        PRES    WAVE   SWELL
                       AIR SEA DIR/SP/G            HT/PER HT/PER/DIR
                 (UTC) (F)     (DEG/KT/KT) (MB)    (FT/S) (FT/S/D)
FOLLY BEACH CMAN 1800   76      90/  5/  6 1015.6F
BUOY 41004       1800   77 81   20/ 10/ 14 1014.6F   3/ 6   2/ 6
BUOY 41008       1800   77 79   50/  8/ 10 1015.1F   2/ 5   2/ 60/ 5
5E ST. MARYS GA  1800      79                N/A     3/ 7
FRYING PAN BUOY  NOT AVBL
BUOY 41025       1800   72     350/ 16/ 19 1014.0F   4/ 7   3/ 70/ 7
CAPE LOOKOUT NC  1800   74      50/ 11/ 12 1014.7F
BUOY 41002       1739   75 81   10/ 10/ 17 1012.6F   3/ 7   3/ 40/ 7
BUOY 41010       1800   77 84   10/ 10/ 12 1013.6F   3/ 8   3/ 20/ 8
BUOY 41012       NOT AVBL
ST AUGUSTINE FL  1800   79      20/ 10/ 11 1014.7F
CAPERS NEARSHORE 1700   76      90/  6/  8   N/A
FRIPP NEARSHORE  NOT AVBL


$$



USA.gov is the U.S. government's official web portal to all federal, state and local government web resources and services.